| time (UTC) | temp F | wind direction | speed MPH | gust MPH | rain 1hr in | rain 24hr in | rain mn in | humidity % | barometer mb |
| 20260505125024 | 35 | 0 | 0.0 | 0.0 | 0.01 | 0.84 | 0.13 | 96 | 1012.7 |
| 20260505124548 | 35 | 0 | 0.0 | 0.0 | 0.01 | 0.84 | 0.13 | 96 | 1012.6 |
| 20260505124024 | 35 | 0 | 0.0 | 0.0 | 0.02 | 0.84 | 0.13 | 96 | 1012.6 |
| 20260505123527 | 35 | 0 | 0.0 | 0.0 | 0.02 | 0.84 | 0.13 | 96 | 1012.6 |
| 20260505123042 | 35 | 0 | 0.0 | 0.0 | 0.02 | 0.84 | 0.13 | 96 | 1012.7 |
| 20260505122525 | 35 | 0 | 0.0 | 0.0 | 0.02 | 0.84 | 0.13 | 96 | 1012.6 |
| 20260505122026 | 35 | 0 | 0.0 | 0.0 | 0.01 | 0.83 | 0.12 | 96 | 1012.6 |
| 20260505121542 | 35 | 0 | 0.0 | 0.0 | 0.01 | 0.83 | 0.12 | 96 | 1012.5 |
| 20260505121025 | 35 | 0 | 0.0 | 0.0 | 0.01 | 0.83 | 0.12 | 96 | 1012.5 |
| 20260505120524 | 35 | 0 | 0.0 | 0.0 | 0.01 | 0.83 | 0.12 | 96 | 1012.5 |
| 20260505120047 | 35 | 0 | 0.0 | 0.0 | 0.02 | 0.83 | 0.12 | 96 | 1012.5 |
| 20260505115524 | 35 | 0 | 0.0 | 0.0 | 0.02 | 0.83 | 0.12 | 96 | 1012.5 |
| 20260505115026 | 35 | 0 | 0.0 | 0.0 | 0.02 | 0.83 | 0.12 | 96 | 1012.5 |
| 20260505114547 | 35 | 0 | 0.0 | 0.0 | 0.02 | 0.83 | 0.12 | 96 | 1012.5 |
| 20260505114026 | 35 | 0 | 0.0 | 0.0 | 0.01 | 0.82 | 0.11 | 96 | 1012.6 |
| 20260505113526 | 35 | 0 | 0.0 | 0.0 | 0.01 | 0.82 | 0.11 | 96 | 1012.5 |
| 20260505113041 | 35 | 0 | 0.0 | 0.0 | 0.01 | 0.82 | 0.11 | 95 | 1012.3 |
| 20260505112529 | 35 | 0 | 0.0 | 0.0 | 0.02 | 0.82 | 0.11 | 96 | 1012.6 |
| 20260505112025 | 35 | 0 | 0.0 | 0.0 | 0.02 | 0.82 | 0.11 | 96 | 1012.5 |
| 20260505111539 | 35 | 0 | 0.0 | 0.0 | 0.02 | 0.82 | 0.11 | 96 | 1012.7 |
| 20260505111024 | 35 | 0 | 0.0 | 0.0 | 0.02 | 0.82 | 0.11 | 96 | 1012.6 |
| 20260505110526 | 35 | 0 | 0.0 | 0.0 | 0.02 | 0.82 | 0.11 | 96 | 1012.7 |
| 20260505102029 | 35 | 0 | 0.0 | 0.0 | 0.01 | 0.80 | 0.09 | 95 | 1012.9 |
| 20260505101543 | 35 | 0 | 0.0 | 0.0 | 0.02 | 0.80 | 0.09 | 95 | 1012.9 |
| 20260505101026 | 35 | 0 | 0.0 | 0.0 | 0.02 | 0.80 | 0.09 | 95 | 1013.1 |
| 20260505100525 | 35 | 0 | 0.0 | 0.0 | 0.02 | 0.80 | 0.09 | 95 | 1013.0 |
| 20260505100041 | 35 | 0 | 0.0 | 0.0 | 0.02 | 0.80 | 0.09 | 95 | 1013.1 |
| 20260505095526 | 35 | 0 | 0.0 | 0.0 | 0.02 | 0.80 | 0.09 | 95 | 1013.1 |
| 20260505095024 | 35 | 0 | 0.0 | 0.0 | 0.01 | 0.79 | 0.08 | 95 | 1013.0 |
| 20260505094545 | 35 | 0 | 0.0 | 0.0 | 0.02 | 0.79 | 0.08 | 95 | 1013.1 |
| 20260505094024 | 35 | 0 | 0.0 | 0.0 | 0.02 | 0.79 | 0.08 | 95 | 1013.2 |
| 20260505093526 | 35 | 0 | 0.0 | 0.0 | 0.02 | 0.79 | 0.08 | 95 | 1013.2 |
| 20260505093045 | 35 | 0 | 0.0 | 0.0 | 0.02 | 0.79 | 0.08 | 95 | 1013.1 |
| 20260505092526 | 35 | 0 | 0.0 | 0.0 | 0.03 | 0.79 | 0.08 | 95 | 1013.2 |
| 20260505092026 | 35 | 0 | 0.0 | 0.0 | 0.03 | 0.79 | 0.08 | 95 | 1013.1 |
| 20260505091539 | 35 | 0 | 0.0 | 0.0 | 0.02 | 0.78 | 0.07 | 95 | 1013.4 |
| 20260505091024 | 35 | 0 | 0.0 | 0.0 | 0.02 | 0.78 | 0.07 | 96 | 1013.4 |
| 20260505090525 | 35 | 0 | 0.0 | 0.0 | 0.02 | 0.78 | 0.07 | 96 | 1013.4 |
| 20260505090048 | 35 | 0 | 0.0 | 0.0 | 0.03 | 0.78 | 0.07 | 95 | 1013.3 |
| 20260505085527 | 34 | 0 | 0.0 | 0.0 | 0.03 | 0.78 | 0.07 | 95 | 1013.3 |
| 20260505085026 | 34 | 0 | 0.0 | 0.0 | 0.04 | 0.78 | 0.07 | 95 | 1013.3 |
| 20260505084548 | 34 | 0 | 0.0 | 0.0 | 0.04 | 0.77 | 0.06 | 95 | 1013.2 |
| 20260505084025 | 34 | 0 | 0.0 | 0.0 | 0.04 | 0.77 | 0.06 | 95 | 1013.4 |
| 20260505083525 | 34 | 0 | 0.0 | 0.0 | 0.04 | 0.77 | 0.06 | 95 | 1013.5 |
| 20260505083041 | 34 | 0 | 0.0 | 0.0 | 0.04 | 0.77 | 0.06 | 95 | 1013.6 |
| 20260505082525 | 34 | 0 | 0.0 | 0.0 | 0.03 | 0.76 | 0.05 | 95 | 1013.6 |
| 20260505082025 | 34 | 0 | 0.0 | 0.0 | 0.04 | 0.76 | 0.05 | 95 | 1013.5 |
| 20260505081538 | 34 | 0 | 0.0 | 0.0 | 0.04 | 0.76 | 0.05 | 95 | 1013.5 |
| 20260505081026 | 34 | 0 | 0.0 | 0.0 | 0.04 | 0.76 | 0.05 | 95 | 1013.3 |
| 20260505080525 | 34 | 0 | 0.0 | 0.0 | 0.05 | 0.76 | 0.05 | 95 | 1013.4 |
| 20260505080053 | 34 | 0 | 0.0 | 0.0 | 0.04 | 0.75 | 0.04 | 95 | 1013.4 |
| 20260505075524 | 34 | 0 | 0.0 | 0.0 | 0.05 | 0.75 | 0.04 | 95 | 1013.6 |
| 20260505075030 | 34 | 0 | 0.0 | 0.0 | 0.04 | 0.74 | 0.03 | 95 | 1013.9 |
| 20260505074544 | 34 | 0 | 0.0 | 2.0 | 0.03 | 0.73 | 0.02 | 95 | 1014.0 |
| 20260505074026 | 34 | 0 | 0.0 | 2.0 | 0.03 | 0.73 | 0.02 | 95 | 1013.9 |
| 20260505073526 | 34 | 164 | 0.0 | 2.0 | 0.03 | 0.73 | 0.02 | 95 | 1013.9 |
| 20260505073046 | 34 | 0 | 0.0 | 1.0 | 0.03 | 0.73 | 0.02 | 95 | 1013.9 |
| 20260505072525 | 34 | 0 | 0.0 | 0.0 | 0.03 | 0.73 | 0.02 | 95 | 1013.9 |
| 20260505072027 | 34 | 0 | 0.0 | 0.0 | 0.02 | 0.72 | 0.01 | 95 | 1013.9 |
| 20260505071540 | 34 | 0 | 0.0 | 0.0 | 0.02 | 0.72 | 0.01 | 95 | 1013.6 |
| 20260505071026 | 34 | 0 | 0.0 | 1.0 | 0.01 | 0.71 | 0.00 | 95 | 1013.6 |
| 20260505070525 | 34 | 0 | 0.0 | 1.0 | 0.01 | 0.71 | 0.00 | 95 | 1013.7 |
| 20260505070050 | 34 | 0 | 0.0 | 1.0 | 0.02 | 0.71 | 0.00 | 95 | 1013.5 |
| 20260505065525 | 34 | 0 | 0.0 | 1.0 | 0.01 | 0.70 | 0.70 | 95 | 1013.5 |
| 20260505065024 | 34 | 0 | 0.0 | 0.0 | 0.01 | 0.70 | 0.70 | 95 | 1013.5 |
| 20260505064546 | 34 | 0 | 0.0 | 0.0 | 0.01 | 0.70 | 0.70 | 95 | 1013.4 |
| 20260505064024 | 34 | 0 | 0.0 | 0.0 | 0.01 | 0.70 | 0.70 | 95 | 1013.6 |
| 20260505063524 | 34 | 0 | 0.0 | 0.0 | 0.01 | 0.70 | 0.70 | 95 | 1013.6 |
| 20260505063101 | 34 | 0 | 0.0 | 0.0 | 0.01 | 0.70 | 0.70 | 95 | 1013.6 |
| 20260505062526 | 33 | 0 | 0.0 | 0.0 | 0.01 | 0.70 | 0.70 | 95 | 1013.5 |
| 20260505062025 | 33 | 0 | 0.0 | 0.0 | 0.02 | 0.70 | 0.70 | 95 | 1013.5 |
| 20260505061543 | 33 | 0 | 0.0 | 0.0 | 0.02 | 0.70 | 0.70 | 95 | 1013.6 |
| 20260505061025 | 33 | 0 | 0.0 | 0.0 | 0.02 | 0.70 | 0.70 | 95 | 1013.6 |
| 20260505060526 | 33 | 0 | 0.0 | 0.0 | 0.02 | 0.70 | 0.70 | 95 | 1013.7 |
| 20260505060040 | 33 | 0 | 0.0 | 0.0 | 0.01 | 0.69 | 0.69 | 95 | 1013.6 |
| 20260505055525 | 33 | 0 | 0.0 | 0.0 | 0.01 | 0.69 | 0.69 | 95 | 1013.6 |
| 20260505055026 | 33 | 0 | 0.0 | 0.0 | 0.01 | 0.69 | 0.69 | 95 | 1013.7 |
| 20260505054540 | 33 | 0 | 0.0 | 0.0 | 0.01 | 0.69 | 0.69 | 95 | 1013.7 |
| 20260505054028 | 33 | 0 | 0.0 | 0.0 | 0.01 | 0.69 | 0.69 | 95 | 1013.8 |
| 20260505053529 | 33 | 0 | 0.0 | 0.0 | 0.02 | 0.69 | 0.69 | 95 | 1013.8 |
| 20260505053056 | 33 | 0 | 0.0 | 0.0 | 0.02 | 0.69 | 0.69 | 95 | 1013.9 |
| 20260505052525 | 33 | 0 | 0.0 | 0.0 | 0.02 | 0.69 | 0.69 | 95 | 1013.9 |
| 20260505052025 | 33 | 0 | 0.0 | 0.0 | 0.01 | 0.68 | 0.68 | 95 | 1013.9 |
| 20260505051541 | 33 | 0 | 0.0 | 0.0 | 0.01 | 0.68 | 0.68 | 95 | 1013.9 |
| 20260505051027 | 33 | 0 | 0.0 | 0.0 | 0.01 | 0.68 | 0.68 | 95 | 1013.8 |
| 20260505050526 | 33 | 0 | 0.0 | 0.0 | 0.02 | 0.68 | 0.68 | 95 | 1013.8 |
| 20260505041553 | 33 | 0 | 0.0 | 0.0 | 0.04 | 0.67 | 0.67 | 95 | 1014.0 |
| 20260505041027 | 33 | 0 | 0.0 | 0.0 | 0.04 | 0.67 | 0.67 | 95 | 1014.0 |
| 20260505040526 | 33 | 0 | 0.0 | 0.0 | 0.03 | 0.66 | 0.66 | 95 | 1013.8 |
| 20260505040052 | 33 | 0 | 0.0 | 0.0 | 0.03 | 0.66 | 0.66 | 95 | 1013.7 |
| 20260505035525 | 33 | 0 | 0.0 | 0.0 | 0.03 | 0.66 | 0.66 | 95 | 1013.7 |
| 20260505035025 | 33 | 0 | 0.0 | 0.0 | 0.02 | 0.65 | 0.65 | 95 | 1013.7 |
| 20260505034545 | 33 | 0 | 0.0 | 0.0 | 0.01 | 0.64 | 0.64 | 95 | 1013.8 |
| 20260505034029 | 33 | 0 | 0.0 | 0.0 | 0.02 | 0.64 | 0.64 | 95 | 1013.8 |
| 20260505033528 | 33 | 0 | 0.0 | 0.0 | 0.02 | 0.64 | 0.64 | 95 | 1013.7 |
| 20260505033045 | 33 | 0 | 0.0 | 0.0 | 0.02 | 0.64 | 0.64 | 95 | 1013.7 |
| 20260505032528 | 33 | 0 | 0.0 | 0.0 | 0.02 | 0.64 | 0.64 | 95 | 1013.9 |
| 20260505032027 | 33 | 0 | 0.0 | 0.0 | 0.03 | 0.64 | 0.64 | 95 | 1013.9 |
| 20260505031553 | 33 | 0 | 0.0 | 0.0 | 0.02 | 0.63 | 0.63 | 95 | 1014.0 |
| 20260505031027 | 33 | 0 | 0.0 | 0.0 | 0.03 | 0.63 | 0.63 | 95 | 1013.9 |
| 20260505030525 | 33 | 0 | 0.0 | 0.0 | 0.05 | 0.63 | 0.63 | 95 | 1013.9 |
| 20260505030047 | 33 | 0 | 0.0 | 0.0 | 0.07 | 0.63 | 0.63 | 95 | 1013.9 |
| 20260505025528 | 33 | 0 | 0.0 | 0.0 | 0.09 | 0.63 | 0.63 | 95 | 1013.7 |
| 20260505025024 | 33 | 0 | 0.0 | 0.0 | 0.10 | 0.63 | 0.63 | 95 | 1013.7 |
| 20260505024554 | 33 | 0 | 0.0 | 3.0 | 0.12 | 0.63 | 0.63 | 95 | 1013.6 |
| 20260505024025 | 33 | 0 | 0.0 | 4.0 | 0.12 | 0.62 | 0.62 | 95 | 1013.6 |
| 20260505023525 | 33 | 0 | 1.0 | 4.0 | 0.13 | 0.62 | 0.62 | 95 | 1013.6 |
| 20260505023039 | 33 | 0 | 0.0 | 4.0 | 0.14 | 0.62 | 0.62 | 94 | 1013.5 |
| 20260505022525 | 33 | 0 | 0.0 | 5.0 | 0.17 | 0.62 | 0.62 | 94 | 1013.4 |
| 20260505022027 | 33 | 165 | 2.0 | 5.0 | 0.17 | 0.61 | 0.61 | 94 | 1013.4 |
| 20260505021547 | 33 | 0 | 0.0 | 0.0 | 0.17 | 0.61 | 0.61 | 94 | 1013.1 |
| 20260505021027 | 33 | 0 | 0.0 | 0.0 | 0.15 | 0.58 | 0.58 | 94 | 1013.4 |
| 20260505020524 | 33 | 0 | 0.0 | 0.0 | 0.13 | 0.57 | 0.57 | 94 | 1013.7 |
| 20260505020044 | 33 | 0 | 0.0 | 0.0 | 0.12 | 0.56 | 0.56 | 94 | 1014.0 |
| 20260505015528 | 33 | 0 | 0.0 | 0.0 | 0.10 | 0.54 | 0.54 | 94 | 1014.1 |
| 20260505015026 | 33 | 0 | 0.0 | 0.0 | 0.10 | 0.52 | 0.52 | 94 | 1013.9 |
| 20260505014601 | 33 | 0 | 0.0 | 0.0 | 0.08 | 0.51 | 0.51 | 94 | 1013.9 |
| 20260505014026 | 33 | 0 | 0.0 | 0.0 | 0.08 | 0.50 | 0.50 | 94 | 1014.1 |
| 20260505013527 | 33 | 0 | 0.0 | 0.0 | 0.08 | 0.49 | 0.49 | 94 | 1014.1 |
| 20260505013041 | 33 | 0 | 0.0 | 0.0 | 0.08 | 0.48 | 0.48 | 93 | 1014.0 |
| 20260505012527 | 34 | 0 | 0.0 | 0.0 | 0.06 | 0.45 | 0.45 | 93 | 1014.2 |
| 20260505012025 | 34 | 0 | 0.0 | 0.0 | 0.06 | 0.44 | 0.44 | 93 | 1014.3 |
| 20260505011545 | 34 | 0 | 0.0 | 0.0 | 0.06 | 0.44 | 0.44 | 93 | 1014.5 |
| 20260505011027 | 34 | 0 | 0.0 | 0.0 | 0.07 | 0.44 | 0.44 | 93 | 1014.7 |
| 20260505010527 | 35 | 0 | 0.0 | 0.0 | 0.07 | 0.44 | 0.44 | 93 | 1014.6 |
| 20260505010045 | 35 | 0 | 0.0 | 0.0 | 0.08 | 0.44 | 0.44 | 93 | 1014.5 |
| 20260505005525 | 35 | 0 | 0.0 | 0.0 | 0.09 | 0.44 | 0.44 | 93 | 1014.4 |
| 20260505005028 | 35 | 0 | 0.0 | 0.0 | 0.09 | 0.43 | 0.43 | 94 | 1014.1 |
| 20260505004544 | 36 | 0 | 0.0 | 0.0 | 0.10 | 0.42 | 0.42 | 94 | 1014.1 |
| 20260505004027 | 36 | 0 | 0.0 | 0.0 | 0.10 | 0.42 | 0.42 | 94 | 1014.1 |
| 20260505003527 | 36 | 0 | 0.0 | 0.0 | 0.10 | 0.41 | 0.41 | 93 | 1014.1 |
| 20260505003042 | 36 | 0 | 0.0 | 0.0 | 0.11 | 0.40 | 0.40 | 93 | 1013.9 |
| 20260505002527 | 36 | 0 | 0.0 | 0.0 | 0.10 | 0.39 | 0.39 | 93 | 1013.8 |
| 20260505002027 | 36 | 0 | 0.0 | 0.0 | 0.10 | 0.38 | 0.38 | 93 | 1013.8 |
| 20260505001539 | 37 | 0 | 0.0 | 0.0 | 0.12 | 0.38 | 0.38 | 93 | 1013.9 |
| 20260505001026 | 37 | 0 | 0.0 | 1.0 | 0.13 | 0.37 | 0.37 | 93 | 1013.9 |
| 20260505000531 | 38 | 0 | 0.0 | 1.0 | 0.14 | 0.37 | 0.37 | 94 | 1013.7 |
| 20260505000051 | 38 | 0 | 0.0 | 3.0 | 0.14 | 0.36 | 0.36 | 93 | 1013.7 |
| 20260504235525 | 38 | 0 | 0.0 | 3.0 | 0.14 | 0.37 | 0.35 | 93 | 1013.6 |
| 20260504235028 | 38 | 0 | 1.0 | 3.0 | 0.13 | 0.36 | 0.34 | 93 | 1013.8 |
| 20260504234548 | 39 | 0 | 0.0 | 3.0 | 0.11 | 0.34 | 0.32 | 94 | 1013.8 |
| 20260504234025 | 39 | 0 | 0.0 | 4.0 | 0.11 | 0.34 | 0.32 | 93 | 1014.0 |
| 20260504233527 | 39 | 0 | 1.0 | 4.0 | 0.10 | 0.32 | 0.30 | 93 | 1013.9 |
| 20260504233103 | 39 | 180 | 1.0 | 4.0 | 0.09 | 0.31 | 0.29 | 94 | 1013.7 |
| 20260504232528 | 39 | 0 | 0.0 | 3.0 | 0.10 | 0.31 | 0.29 | 94 | 1013.6 |
| 20260504232108 | 40 | 0 | 0.0 | 3.0 | 0.08 | 0.29 | 0.27 | 94 | 1013.5 |
| 20260504231543 | 40 | 0 | 0.0 | 2.0 | 0.08 | 0.28 | 0.26 | 94 | 1013.4 |
| 20260504231027 | 40 | 0 | 0.0 | 3.0 | 0.07 | 0.26 | 0.24 | 94 | 1013.4 |
| 20260504230527 | 40 | 184 | 0.0 | 7.0 | 0.06 | 0.25 | 0.23 | 94 | 1013.6 |
| 20260504230042 | 40 | 0 | 0.0 | 7.0 | 0.05 | 0.24 | 0.22 | 94 | 1013.5 |
| 20260504225526 | 40 | 176 | 0.0 | 6.0 | 0.04 | 0.36 | 0.21 | 94 | 1013.6 |
| 20260504225026 | 40 | 0 | 0.0 | 6.0 | 0.04 | 0.36 | 0.21 | 93 | 1013.6 |
| 20260504224542 | 40 | 0 | 0.0 | 4.0 | 0.04 | 0.36 | 0.21 | 93 | 1013.7 |
| 20260504224027 | 40 | 0 | 0.0 | 5.0 | 0.04 | 0.36 | 0.21 | 93 | 1013.6 |
| 20260504223525 | 40 | 173 | 1.0 | 5.0 | 0.03 | 0.35 | 0.20 | 93 | 1013.7 |
| 20260504223055 | 40 | 173 | 0.0 | 3.0 | 0.03 | 0.35 | 0.20 | 92 | 1013.7 |
| 20260504222525 | 40 | 0 | 0.0 | 5.0 | 0.02 | 0.34 | 0.19 | 92 | 1013.9 |
| 20260504222024 | 40 | 173 | 0.0 | 5.0 | 0.02 | 0.34 | 0.19 | 91 | 1013.9 |
| 20260504221544 | 41 | 173 | 0.0 | 3.0 | 0.01 | 0.33 | 0.18 | 91 | 1013.8 |
| 20260504221025 | 41 | 0 | 0.0 | 3.0 | 0.00 | 0.32 | 0.17 | 91 | 1013.9 |
| 20260504220527 | 41 | 0 | 0.0 | 5.0 | 0.00 | 0.32 | 0.17 | 90 | 1014.0 |
| 20260504220042 | 41 | 173 | 0.0 | 5.0 | 0.00 | 0.32 | 0.17 | 90 | 1013.9 |
| 20260504215527 | 42 | 0 | 0.0 | 3.0 | 0.00 | 0.36 | 0.17 | 92 | 1013.9 |
| 20260504215026 | 42 | 0 | 0.0 | 3.0 | 0.00 | 0.36 | 0.17 | 91 | 1013.9 |
| 20260504214538 | 42 | 0 | 0.0 | 6.0 | 0.00 | 0.36 | 0.17 | 93 | 1013.9 |
| 20260504214026 | 41 | 173 | 3.0 | 6.0 | 0.01 | 0.36 | 0.17 | 93 | 1013.9 |
| 20260504213530 | 41 | 0 | 0.0 | 2.0 | 0.01 | 0.36 | 0.17 | 94 | 1013.9 |
| 20260504213051 | 40 | 0 | 0.0 | 6.0 | 0.01 | 0.36 | 0.17 | 93 | 1013.9 |
| 20260504212527 | 40 | 0 | 0.0 | 6.0 | 0.01 | 0.36 | 0.17 | 92 | 1014.2 |
| 20260504212026 | 41 | 104 | 1.0 | 6.0 | 0.01 | 0.36 | 0.17 | 92 | 1014.6 |
| 20260504211538 | 41 | 0 | 0.0 | 0.0 | 0.02 | 0.36 | 0.17 | 91 | 1013.9 |
| 20260504211024 | 41 | 0 | 0.0 | 2.0 | 0.02 | 0.36 | 0.17 | 91 | 1013.9 |
| 20260504210525 | 41 | 0 | 0.0 | 2.0 | 0.04 | 0.36 | 0.17 | 92 | 1014.0 |
| 20260504210047 | 41 | 0 | 0.0 | 3.0 | 0.06 | 0.36 | 0.17 | 92 | 1014.0 |
| 20260504205525 | 41 | 0 | 0.0 | 3.0 | 0.09 | 0.36 | 0.17 | 91 | 1014.0 |
| 20260504205029 | 41 | 0 | 0.0 | 0.0 | 0.11 | 0.36 | 0.17 | 91 | 1014.0 |
| 20260504204546 | 40 | 0 | 0.0 | 0.0 | 0.12 | 0.36 | 0.17 | 92 | 1013.9 |
| 20260504204028 | 40 | 0 | 0.0 | 0.0 | 0.12 | 0.35 | 0.16 | 91 | 1014.0 |
| 20260504203527 | 40 | 0 | 0.0 | 0.0 | 0.12 | 0.35 | 0.16 | 91 | 1014.1 |
| 20260504203058 | 40 | 0 | 0.0 | 0.0 | 0.13 | 0.35 | 0.16 | 92 | 1014.2 |
| 20260504202527 | 40 | 0 | 0.0 | 0.0 | 0.13 | 0.35 | 0.16 | 91 | 1014.3 |
| 20260504202025 | 40 | 0 | 0.0 | 2.0 | 0.13 | 0.35 | 0.16 | 91 | 1014.3 |
| 20260504201539 | 40 | 0 | 0.0 | 2.0 | 0.12 | 0.34 | 0.15 | 90 | 1014.3 |
| 20260504201030 | 40 | 0 | 0.0 | 0.0 | 0.11 | 0.33 | 0.14 | 91 | 1014.5 |
| 20260504200525 | 41 | 0 | 0.0 | 0.0 | 0.10 | 0.32 | 0.13 | 90 | 1014.4 |
| 20260504200046 | 41 | 0 | 0.0 | 3.0 | 0.08 | 0.30 | 0.11 | 91 | 1014.6 |
| 20260504195525 | 41 | 0 | 0.0 | 7.0 | 0.05 | 0.27 | 0.08 | 90 | 1014.6 |
| 20260504195027 | 41 | 0 | 1.0 | 7.0 | 0.03 | 0.25 | 0.06 | 91 | 1014.5 |
| 20260504194543 | 42 | 105 | 2.0 | 6.0 | 0.02 | 0.24 | 0.05 | 90 | 1014.5 |
| 20260504194024 | 42 | 106 | 1.0 | 3.0 | 0.01 | 0.23 | 0.04 | 89 | 1014.3 |
| 20260504193526 | 42 | 106 | 1.0 | 3.0 | 0.01 | 0.23 | 0.04 | 89 | 1014.3 |
| 20260504193046 | 42 | 0 | 0.0 | 3.0 | 0.00 | 0.22 | 0.03 | 88 | 1014.1 |
| 20260504192524 | 42 | 0 | 0.0 | 2.0 | 0.00 | 0.22 | 0.03 | 86 | 1014.2 |
| 20260504192027 | 43 | 106 | 0.0 | 2.0 | 0.00 | 0.22 | 0.03 | 88 | 1014.1 |
| 20260504191543 | 43 | 0 | 0.0 | 1.0 | 0.00 | 0.22 | 0.03 | 89 | 1014.1 |
| 20260504191027 | 43 | 0 | 0.0 | 1.0 | 0.00 | 0.22 | 0.03 | 89 | 1014.1 |
| 20260504190527 | 43 | 0 | 0.0 | 2.0 | 0.00 | 0.22 | 0.03 | 89 | 1014.1 |
| 20260504190045 | 43 | 0 | 0.0 | 2.0 | 0.00 | 0.22 | 0.03 | 90 | 1014.2 |
| 20260504185526 | 43 | 0 | 0.0 | 2.0 | 0.00 | 0.22 | 0.03 | 89 | 1014.2 |
| 20260504185026 | 43 | 0 | 0.0 | 2.0 | 0.00 | 0.22 | 0.03 | 89 | 1014.3 |
| 20260504184538 | 42 | 106 | 0.0 | 3.0 | 0.00 | 0.22 | 0.03 | 89 | 1014.3 |
| 20260504184026 | 42 | 0 | 0.0 | 4.0 | 0.00 | 0.22 | 0.03 | 88 | 1014.2 |
| 20260504183525 | 42 | 106 | 2.0 | 4.0 | 0.00 | 0.22 | 0.03 | 87 | 1014.3 |
| 20260504183043 | 42 | 0 | 0.0 | 3.0 | 0.01 | 0.22 | 0.03 | 88 | 1014.2 |
| 20260504182524 | 42 | 0 | 0.0 | 3.0 | 0.01 | 0.22 | 0.03 | 89 | 1014.2 |
| 20260504182025 | 42 | 105 | 0.0 | 3.0 | 0.01 | 0.22 | 0.03 | 88 | 1014.2 |
| 20260504181546 | 42 | 0 | 0.0 | 3.0 | 0.01 | 0.22 | 0.03 | 89 | 1014.1 |
| 20260504181024 | 42 | 0 | 0.0 | 3.0 | 0.01 | 0.22 | 0.03 | 89 | 1014.0 |
| 20260504180531 | 42 | 105 | 0.0 | 3.0 | 0.01 | 0.22 | 0.03 | 89 | 1014.1 |
| 20260504180043 | 42 | 0 | 0.0 | 3.0 | 0.01 | 0.22 | 0.03 | 88 | 1014.1 |
| 20260504175526 | 42 | 0 | 0.0 | 3.0 | 0.01 | 0.22 | 0.03 | 88 | 1014.1 |
| 20260504175026 | 43 | 0 | 0.0 | 3.0 | 0.01 | 0.22 | 0.03 | 88 | 1014.2 |
| 20260504174538 | 43 | 105 | 0.0 | 4.0 | 0.01 | 0.22 | 0.03 | 87 | 1014.1 |
| 20260504174025 | 43 | 0 | 1.0 | 4.0 | 0.02 | 0.22 | 0.03 | 87 | 1013.9 |
| 20260504173526 | 43 | 0 | 0.0 | 2.0 | 0.02 | 0.22 | 0.03 | 90 | 1014.0 |
| 20260504173045 | 43 | 102 | 0.0 | 2.0 | 0.01 | 0.21 | 0.02 | 90 | 1013.9 |
| 20260504172525 | 43 | 0 | 0.0 | 3.0 | 0.01 | 0.21 | 0.02 | 89 | 1013.9 |
| 20260504172027 | 43 | 0 | 0.0 | 3.0 | 0.01 | 0.21 | 0.02 | 90 | 1014.1 |
| 20260504171549 | 42 | 102 | 0.0 | 2.0 | 0.01 | 0.21 | 0.02 | 89 | 1014.0 |
| 20260504171026 | 43 | 0 | 0.0 | 2.0 | 0.01 | 0.21 | 0.02 | 89 | 1013.9 |
| 20260504170526 | 43 | 0 | 0.0 | 2.0 | 0.01 | 0.21 | 0.02 | 89 | 1013.9 |
| 20260504151026 | 42 | 0 | 0.0 | 1.0 | 0.00 | 0.19 | 0.00 | 84 | 1013.8 |
| 20260504150525 | 42 | 0 | 0.0 | 1.0 | 0.00 | 0.19 | 0.00 | 84 | 1013.9 |
| 20260504141024 | 41 | 0 | 0.0 | 3.0 | 0.00 | 0.19 | 0.00 | 88 | 1013.6 |
| 20260504140525 | 41 | 0 | 0.0 | 4.0 | 0.00 | 0.19 | 0.00 | 88 | 1013.6 |
| 20260504130526 | 39 | 0 | 0.0 | 1.0 | 0.00 | 0.19 | 0.00 | 89 | 1013.4 |